Tracking 19125 objects as of 19-Apr-2018
HD Live streaming from Space Station
objects crossing your sky now

LINK

Track LINK now!
10-day predictions
LINK is classified as:


NORAD ID: 42714
Int'l Code: 1998-067LV
Perigee: 354.0 km
Apogee: 357.7 km
Inclination: 51.6 °
Period: 91.5 minutes
Semi major axis: 6726 km
RCS: Unknown
Launch date: November 20, 1998
Source: South Korea (SKOR)
Launch site: TYURATAM MISSILE AND SPACE COMPLEX (TTMTR)
Uplink (MHz):
Downlink (MHz): 436.030
Beacon (MHz):
Mode: 1200bps BPSK
Call sign: D80LW
Status: Active

aabbcc
Your satellite tracking list
Your tracking list is empty




NASA's NSSDC Master Catalog

Two Line Element Set (TLE):
1 42714U 98067LV  18109.07158419  .00049567  00000-0  34948-3 0  9994
2 42714  51.6314 292.6197 0002769 278.5916  81.4769 15.73557624 52465
Source of the keplerian elements: AFSPC